User: anonymous   Login
Location: Unspecified
(0.0000°N, 0.0000°E)
Time: 02:47:07
(UTC+01:00)
Language:

Cosmos 1315 Rocket - Orbit

View from above orbital plane
View from above orbital plane
View from above satellite
View from above satellite

Ground track
Ground track

The orbit data is extracted from the following two-line orbital elements,

1 12904U 81103B   14304.45752379  .00003285  00000-0  24052-3 0  6196
2 12904 081.1772 290.4138 0028911 342.3783 017.6433 15.02992028348515
Epoch (UTC): 31 October 2014 10:58:50
Eccentricity: 0.0028911
inclination: 81.1772°
perigee height: 537 km
apogee height: 578 km
right ascension of ascending node: 290.4138°
argument of perigee: 342.3783°
revolutions per day: 15.02992028
mean anomaly at epoch: 17.6433°
orbit number at epoch: 34851

The dashed part of the orbit path shows where the satellite is in the earth's shadow,  

DLR